Whitefield, NH

8:59 AM EST on January 21, 2018 (GMT -0500)
Mount Washington Regional

Weather History for KHIE - September, 2013

Change the Weather History Date:

Saturday, September 28, 2013

  Actual Average Record
Temperature  
Mean Temperature 56 °F -  
Max Temperature 73 °F 62 °F 81 °F (2014)
Min Temperature 39 °F 33 °F 24 °F (2000)
Degree Days  
Heating Degree Days 9    
Growing Degree Days 6 (Base 50)    
Moisture  
Dew Point 42 °F    
Average Humidity 84    
Maximum Humidity 94    
Minimum Humidity 42    
Precipitation  
Precipitation 0.00 in - - ()
Sea Level Pressure  
Sea Level Pressure 30.33 in    
Wind  
Wind Speed 0 mph (NW)    
Max Wind Speed 5 mph    
Max Gust Speed -    
Visibility 5 miles    
Events Fog , Rain    
Averages and records for this station are not official NWS values.
T = Trace of Precipitation, MM = Missing Value Source: NWS Daily Summary

Daily Weather History Graph

Daily Weather History Graph

Search for Another Location

Airport or City:

Trip Planner

Search our weather history database for the weather conditions in past years. The results will help you decide how hot, cold, wet, or windy it might be!

Date:

Astronomy

Sep. 28, 2013 Rise Set
Actual Time 6:40 AM EDT 6:32 PM EDT
Civil Twilight 6:11 AM EDT 7:00 PM EDT
Nautical Twilight 5:37 AM EDT 7:34 PM EDT
Astronomical Twilight 5:03 AM EDT 8:08 PM EDT
Moon 12:13 AM EDT (9/28) 2:59 PM EDT (9/28)
Length of Visible Light 12h 49m
Length of Day
11h 51m
Last Quarter, 36% of the Moon is Illuminated
Sep 28
Last Quarter
Oct 4
New
Oct 11
First Quarter
Oct 18
Full
Oct 26
Last Quarter

Hourly Weather History & Observations

Time (EDT) Temp. Dew Point Humidity Pressure Visibility Wind Dir Wind Speed Gust Speed Precip Events Conditions
12:24 AM 42.8 °F 39.2 °F 87% 30.30 in 10.0 mi Calm Calm - N/A   Scattered Clouds
12:35 AM 42.8 °F 39.2 °F 87% 30.30 in 10.0 mi Calm Calm - N/A   Mostly Cloudy
12:43 AM 42.8 °F 39.2 °F 87% 30.30 in 10.0 mi Calm Calm - N/A   Scattered Clouds
12:52 AM 42.1 °F 39.0 °F 89% 30.32 in 10.0 mi Calm Calm - N/A   Partly Cloudy
1:48 AM 41.0 °F 37.4 °F 87% 30.32 in 1.2 mi Calm Calm - N/A   Partly Cloudy
1:50 AM 41.0 °F 37.4 °F 87% 30.32 in 0.8 mi Calm Calm - N/A   Mist
1:52 AM 41.0 °F 37.9 °F 89% 30.33 in 0.8 mi Calm Calm - N/A   Mist
2:00 AM 41.0 °F 37.4 °F 87% 30.32 in 1.2 mi Calm Calm - N/A   Mostly Cloudy
2:03 AM 41.0 °F 37.4 °F 87% 30.32 in 4.0 mi Calm Calm - N/A   Mostly Cloudy
2:17 AM 41.0 °F 37.4 °F 87% 30.32 in 1.8 mi Calm Calm - N/A   Overcast
2:34 AM 41.0 °F 37.4 °F 87% 30.32 in 0.8 mi Calm Calm - N/A   Mist
2:50 AM 39.2 °F 37.4 °F 93% 30.32 in 1.2 mi Calm Calm - N/A   Overcast
2:52 AM 39.9 °F 37.9 °F 93% 30.34 in 2.0 mi Calm Calm - N/A   Overcast
2:59 AM 39.2 °F 37.4 °F 93% 30.32 in 1.0 mi Calm Calm - N/A   Overcast
3:10 AM 39.2 °F 37.4 °F 93% 30.32 in 1.5 mi Calm Calm - N/A   Overcast
3:13 AM 39.2 °F 37.4 °F 93% 30.32 in 0.8 mi Calm Calm - N/A   Mist
3:38 AM 39.2 °F 37.4 °F 93% 30.32 in 1.2 mi Calm Calm - N/A   Overcast
3:48 AM 39.2 °F 37.4 °F 93% 30.32 in 0.8 mi Calm Calm - N/A   Overcast
3:52 AM 39.9 °F 37.9 °F 93% 30.34 in 0.5 mi Calm Calm - N/A Fog Fog
4:48 AM 39.2 °F 37.4 °F 93% 30.33 in 1.2 mi Calm Calm - N/A   Overcast
4:52 AM 39.0 °F 37.0 °F 93% 30.35 in 1.8 mi Calm Calm - N/A   Overcast
4:56 AM 39.2 °F 37.4 °F 93% 30.33 in 3.0 mi Calm Calm - N/A   Overcast
5:15 AM 39.2 °F 37.4 °F 93% 30.33 in 1.5 mi Calm Calm - N/A   Overcast
5:19 AM 39.2 °F 37.4 °F 93% 30.33 in 0.8 mi Calm Calm - N/A   Overcast
5:52 AM 39.9 °F 37.9 °F 93% 30.36 in 0.5 mi Calm Calm - N/A Fog Fog
6:52 AM 41.0 °F 37.9 °F 89% 30.39 in 0.2 mi Calm Calm - N/A Fog Fog
7:52 AM 42.1 °F 39.9 °F 92% 30.40 in 0.2 mi Calm Calm - 0.00 in Fog , Rain Light Rain
8:52 AM 45.0 °F 43.0 °F 93% 30.40 in 0.2 mi Calm Calm - 0.00 in Fog Fog
9:52 AM 48.0 °F 46.0 °F 93% 30.41 in 0.2 mi Calm Calm - N/A Fog Fog
10:18 AM 50.0 °F 48.2 °F 94% 30.38 in 1.2 mi Calm Calm - N/A   Overcast
10:22 AM 50.0 °F 48.2 °F 94% 30.38 in 3.0 mi Calm Calm - N/A   Overcast
10:52 AM 54.0 °F 50.0 °F 86% 30.39 in 10.0 mi Calm Calm - N/A   Partly Cloudy
11:52 AM 66.0 °F 52.0 °F 60% 30.37 in 10.0 mi WSW 3.5 mph - N/A   Clear
12:52 PM 69.1 °F 51.1 °F 53% 30.34 in 9.0 mi WNW 4.6 mph - N/A   Clear
1:52 PM 71.1 °F 51.1 °F 49% 30.32 in 10.0 mi North 3.5 mph - N/A   Clear
2:52 PM 71.1 °F 48.9 °F 45% 30.31 in 10.0 mi South 4.6 mph - N/A   Clear
3:52 PM 73.0 °F 48.9 °F 42% 30.30 in 10.0 mi Calm Calm - N/A   Clear
4:52 PM 73.0 °F 48.9 °F 42% 30.28 in 10.0 mi North 3.5 mph - N/A   Clear
5:52 PM 69.1 °F 50.0 °F 51% 30.28 in 10.0 mi Calm Calm - N/A   Clear
6:52 PM 57.0 °F 51.1 °F 81% 30.29 in 10.0 mi Calm Calm - N/A   Clear
7:52 PM 52.0 °F 48.9 °F 89% 30.30 in 10.0 mi Calm Calm - N/A   Clear
8:52 PM 50.0 °F 46.0 °F 86% 30.30 in 10.0 mi Calm Calm - N/A   Clear
9:52 PM 48.0 °F 44.1 °F 86% 30.31 in 10.0 mi Calm Calm - N/A   Clear
10:52 PM 46.0 °F 43.0 °F 89% 30.30 in 10.0 mi Calm Calm - N/A   Clear
11:52 PM 43.0 °F 39.9 °F 89% 30.29 in 10.0 mi Calm Calm - N/A   Clear